EDT,Max TemperatureF,Mean TemperatureF,Min TemperatureF,Max Dew PointF,MeanDew PointF,Min DewpointF,Max Humidity, Mean Humidity, Min Humidity, Max Sea Level PressureIn, Mean Sea Level PressureIn, Min Sea Level PressureIn, Max VisibilityMiles, Mean VisibilityMiles, Min VisibilityMiles, Max Wind SpeedMPH, Mean Wind SpeedMPH, Max Gust SpeedMPH,PrecipitationIn, CloudCover, Events, WindDirDegrees
2012-10-1,56,54,51,52,51,50,95,90,81,29.88,29.68,29.51,10,7,1,12,4,17,0.00,8,Rain,242
2012-10-2,64,59,54,55,53,50,93,84,69,30.04,29.97,29.88,10,10,5,8,3,,0.00,5,Rain,187
2012-10-3,66,58,51,62,56,50,96,92,83,30.12,30.07,30.03,10,8,2,5,1,,0.00,8,Rain,120
2012-10-4,64,60,56,63,59,54,97,96,92,30.12,30.06,29.97,10,4,0,6,1,,0.00,6,Fog-Rain,174
2012-10-5,72,63,54,58,55,52,95,79,60,29.97,29.91,29.84,10,9,3,9,5,16,0.00,4,,191
2012-10-6,58,53,46,54,47,35,95,84,60,29.90,29.79,29.73,10,8,2,9,2,20,0.00,6,Rain,240
2012-10-7,51,44,40,40,37,34,91,72,55,30.07,30.02,29.91,10,10,10,9,3,17,0.00,5,,260
2012-10-8,54,46,38,40,36,30,95,74,39,30.28,30.19,30.08,10,10,7,7,1,,0.00,4,Rain,184
2012-10-9,59,46,34,42,37,32,91,71,46,30.28,30.21,30.06,10,10,10,12,5,18,0.00,2,,150
2012-10-10,54,50,46,50,44,38,92,80,66,30.05,29.86,29.68,10,10,4,12,6,20,0.00,7,Rain,176
2012-10-11,52,46,40,39,32,26,76,60,37,30.03,29.95,29.79,10,10,7,10,6,23,0.00,7,Rain,266
2012-10-12,46,39,32,41,29,19,90,66,44,30.38,30.13,29.89,10,10,4,14,7,24,0.00,6,Rain,278
2012-10-13,51,37,24,32,27,23,94,68,39,30.43,30.34,30.19,10,10,10,10,1,20,0.00,4,,169
2012-10-14,59,48,36,50,43,32,93,87,71,30.20,29.95,29.72,10,8,3,15,9,29,0.00,7,Rain,173
2012-10-15,67,59,51,56,50,42,88,71,60,29.71,29.60,29.54,10,10,10,16,9,36,0.00,5,Rain,186
2012-10-16,51,44,32,43,33,29,89,68,57,29.89,29.74,29.59,10,10,10,12,5,20,0.00,7,,276
2012-10-17,56,42,28,40,34,27,96,75,44,29.98,29.94,29.89,10,10,7,6,1,,0.00,3,,175
2012-10-18,69,56,43,44,37,33,77,55,30,29.98,29.94,29.90,10,10,7,13,3,21,0.00,1,,165
2012-10-19,58,54,51,54,50,40,95,86,57,29.98,29.84,29.69,10,8,2,15,7,25,0.00,7,Rain,131
2012-10-20,67,56,42,57,51,41,97,86,51,29.70,29.64,29.57,10,6,0,8,2,17,0.00,6,Fog-Rain,207
2012-10-21,52,48,43,46,41,39,96,73,62,29.88,29.78,29.71,10,10,1,12,4,18,0.00,8,Rain,237
2012-10-22,56,47,38,42,39,36,88,69,50,30.05,29.96,29.88,10,10,7,10,5,17,0.00,3,,292
2012-10-23,51,42,32,41,36,32,96,79,51,30.17,30.12,30.05,10,9,1,6,1,,0.00,1,,349
2012-10-24,54,40,27,37,32,26,95,70,41,30.23,30.19,30.15,10,10,10,7,1,,0.00,2,,23
2012-10-25,67,52,36,49,39,28,80,63,41,30.22,30.18,30.12,10,10,10,12,3,20,0.00,4,,157
2012-10-26,66,58,53,52,49,46,83,75,62,30.14,30.11,30.06,10,10,7,13,9,23,0.00,1,,179
2012-10-27,66,56,46,55,50,45,95,82,66,30.09,30.03,29.96,10,8,1,7,2,,0.00,4,,296
2012-10-28,52,49,46,50,46,44,92,86,75,30.05,29.98,29.90,10,9,5,7,1,,0.00,2,,360
2012-10-29,64,54,46,50,45,42,90,72,54,29.89,29.71,29.39,10,10,10,22,9,32,0.00,4,,31
2012-10-30,71,62,54,59,51,47,94,71,47,29.53,29.47,29.36,10,10,2,23,12,32,0.00,5,Rain,97
2012-10-31,56,51,45,54,43,36,96,80,61,29.50,29.46,29.40,10,10,5,12,5,23,0.00,5,Rain,165